Time,TemperatureF,DewpointF,PressureIn,WindDirection,WindDirectionDegrees,WindSpeedMPH,WindSpeedGustMPH,Humidity,HourlyPrecipIn,Conditions,Clouds,dailyrainin,SoftwareType,DateUTC
2013-08-11 00:00:00,62.6,49.8,30.03,South,184,0.0,0.0,63,0.00,,,-99.99,Weather View 32 v70,2013-08-11 05:00:00,
2013-08-11 00:10:00,62.1,49.7,30.03,South,184,0.0,0.0,64,0.00,,,-99.99,Weather View 32 v70,2013-08-11 05:10:00,
2013-08-11 00:20:00,61.7,49.8,30.03,South,184,0.0,0.0,65,0.00,,,-99.99,Weather View 32 v70,2013-08-11 05:20:00,
2013-08-11 00:30:00,61.3,49.9,30.03,South,184,0.0,0.0,66,0.00,,,-99.99,Weather View 32 v70,2013-08-11 05:30:00,
2013-08-11 00:40:00,61.0,49.9,30.03,South,184,0.0,0.0,67,0.00,,,-99.99,Weather View 32 v70,2013-08-11 05:40:00,
2013-08-11 00:45:00,60.8,50.1,30.03,South,184,0.0,0.0,68,0.00,,,-99.99,Weather View 32 v70,2013-08-11 05:45:00,
2013-08-11 00:51:00,60.8,50.1,30.03,South,184,0.0,0.0,68,0.00,,,-99.99,Weather View 32 v70,2013-08-11 05:51:00,
2013-08-11 01:00:00,60.6,50.4,30.03,South,184,0.0,0.0,69,0.00,,,-99.99,Weather View 32 v70,2013-08-11 06:00:00,
2013-08-11 01:10:00,60.4,50.6,30.03,South,184,0.0,0.0,70,0.00,,,-99.99,Weather View 32 v70,2013-08-11 06:10:00,
2013-08-11 01:15:00,60.3,50.4,30.03,South,184,0.0,0.0,70,0.00,,,-99.99,Weather View 32 v70,2013-08-11 06:15:00,
2013-08-11 01:25:00,59.9,50.1,30.03,South,184,0.0,0.0,70,0.00,,,-99.99,Weather View 32 v70,2013-08-11 06:25:00,
2013-08-11 01:35:00,59.7,50.3,30.03,South,184,0.0,0.0,71,0.00,,,-99.99,Weather View 32 v70,2013-08-11 06:35:00,
2013-08-11 01:40:00,59.7,50.3,30.03,South,184,0.0,0.0,71,0.00,,,-99.99,Weather View 32 v70,2013-08-11 06:40:00,
2013-08-11 01:45:00,59.7,50.3,30.03,South,184,0.0,0.0,71,0.00,,,-99.99,Weather View 32 v70,2013-08-11 06:45:00,
2013-08-11 01:52:00,59.7,50.3,30.03,South,184,0.0,0.0,71,0.00,,,-99.99,Weather View 32 v70,2013-08-11 06:52:00,
2013-08-11 02:00:00,59.9,50.8,30.03,South,184,0.0,0.0,72,0.00,,,-99.99,Weather View 32 v70,2013-08-11 07:00:00,
2013-08-11 02:15:00,60.8,52.1,30.03,South,184,0.0,0.0,73,0.00,,,-99.99,Weather View 32 v70,2013-08-11 07:15:00,
2013-08-11 02:20:00,61.0,52.2,30.03,South,184,0.0,0.0,73,0.00,,,-99.99,Weather View 32 v70,2013-08-11 07:20:00,
2013-08-11 02:30:00,61.2,52.4,30.03,South,184,0.0,0.0,73,0.00,,,-99.99,Weather View 32 v70,2013-08-11 07:30:00,
2013-08-11 02:40:00,61.3,52.6,30.03,South,184,0.0,0.0,73,0.00,,,-99.99,Weather View 32 v70,2013-08-11 07:40:00,
2013-08-11 02:50:00,61.5,52.8,30.03,South,184,0.0,0.0,73,0.00,,,-99.99,Weather View 32 v70,2013-08-11 07:50:00,
2013-08-11 03:00:00,61.7,53.3,30.03,South,184,0.0,0.0,74,0.00,,,-99.99,Weather View 32 v70,2013-08-11 08:00:00,
2013-08-11 03:05:00,61.9,53.5,30.03,South,184,0.0,0.0,74,0.00,,,-99.99,Weather View 32 v70,2013-08-11 08:05:00,
2013-08-11 03:15:00,62.1,53.7,30.03,South,184,0.0,0.0,74,0.00,,,-99.99,Weather View 32 v70,2013-08-11 08:15:00,
2013-08-11 03:25:00,62.4,54.0,30.03,South,184,0.0,0.0,74,0.00,,,-99.99,Weather View 32 v70,2013-08-11 08:25:00,
2013-08-11 03:35:00,62.6,53.8,30.03,South,184,0.0,0.0,73,0.00,,,-99.99,Weather View 32 v70,2013-08-11 08:35:00,
2013-08-11 03:45:00,62.6,53.8,30.03,South,184,0.0,0.0,73,0.00,,,-99.99,Weather View 32 v70,2013-08-11 08:45:00,
2013-08-11 03:53:00,62.6,53.8,30.03,South,184,0.0,0.0,73,0.00,,,-99.99,Weather View 32 v70,2013-08-11 08:53:00,
2013-08-11 04:05:00,62.6,53.4,30.03,South,184,0.0,0.0,72,0.00,,,-99.99,Weather View 32 v70,2013-08-11 09:05:00,
2013-08-11 04:15:00,62.6,53.4,30.03,South,184,0.0,0.0,72,0.00,,,-99.99,Weather View 32 v70,2013-08-11 09:15:00,
2013-08-11 04:25:00,62.6,53.4,30.03,South,184,0.0,0.0,72,0.00,,,-99.99,Weather View 32 v70,2013-08-11 09:25:00,
2013-08-11 04:30:00,62.6,53.4,30.06,South,184,0.0,0.0,72,0.00,,,-99.99,Weather View 32 v70,2013-08-11 09:30:00,
2013-08-11 04:40:00,62.6,53.8,30.06,South,184,0.0,0.0,73,0.00,,,-99.99,Weather View 32 v70,2013-08-11 09:40:00,
2013-08-11 04:50:00,62.6,53.8,30.06,South,184,0.0,0.0,73,0.00,,,-99.99,Weather View 32 v70,2013-08-11 09:50:00,
2013-08-11 05:00:00,62.8,54.0,30.06,South,183,0.0,0.0,73,0.00,,,-99.99,Weather View 32 v70,2013-08-11 10:00:00,
2013-08-11 05:05:00,62.6,53.8,30.06,South,184,0.0,0.0,73,0.00,,,-99.99,Weather View 32 v70,2013-08-11 10:05:00,
2013-08-11 05:10:00,62.6,53.8,30.06,South,184,0.0,0.0,73,0.00,,,-99.99,Weather View 32 v70,2013-08-11 10:10:00,
2013-08-11 05:20:00,62.4,54.0,30.06,South,184,0.0,0.0,74,0.00,,,-99.99,Weather View 32 v70,2013-08-11 10:20:00,
2013-08-11 05:30:00,62.1,54.0,30.06,South,184,0.0,0.0,75,0.00,,,-99.99,Weather View 32 v70,2013-08-11 10:30:00,
2013-08-11 05:35:00,62.1,54.0,30.06,South,184,0.0,0.0,75,0.00,,,-99.99,Weather View 32 v70,2013-08-11 10:35:00,
2013-08-11 05:45:00,61.9,54.2,30.06,South,184,0.0,0.0,76,0.00,,,-99.99,Weather View 32 v70,2013-08-11 10:45:00,
2013-08-11 05:54:00,61.9,54.2,30.06,South,184,0.0,0.0,76,0.00,,,-99.99,Weather View 32 v70,2013-08-11 10:54:00,
2013-08-11 06:05:00,61.7,54.4,30.06,South,184,0.0,0.0,77,0.00,,,-99.99,Weather View 32 v70,2013-08-11 11:05:00,
2013-08-11 06:10:00,61.5,54.2,30.06,South,184,0.0,0.0,77,0.00,,,-99.99,Weather View 32 v70,2013-08-11 11:10:00,
2013-08-11 06:20:00,61.5,54.6,30.06,South,184,0.0,0.0,78,0.00,,,-99.99,Weather View 32 v70,2013-08-11 11:20:00,
2013-08-11 06:30:00,61.5,54.6,30.06,South,183,0.0,0.0,78,0.00,,,-99.99,Weather View 32 v70,2013-08-11 11:30:00,
2013-08-11 06:40:00,61.3,54.8,30.06,South,184,0.0,0.0,79,0.00,,,-99.99,Weather View 32 v70,2013-08-11 11:40:00,
2013-08-11 06:45:00,61.3,54.8,30.06,South,184,0.0,0.0,79,0.00,,,-99.99,Weather View 32 v70,2013-08-11 11:45:00,
2013-08-11 06:50:00,61.3,54.8,30.06,South,184,0.0,0.0,79,0.00,,,-99.99,Weather View 32 v70,2013-08-11 11:50:00,
2013-08-11 07:05:00,61.5,55.3,30.06,South,184,0.0,0.0,80,0.00,,,-99.99,Weather View 32 v70,2013-08-11 12:05:00,
2013-08-11 07:15:00,61.7,55.5,30.06,South,183,0.0,0.0,80,0.00,,,-99.99,Weather View 32 v70,2013-08-11 12:15:00,
2013-08-11 07:20:00,61.9,56.0,30.06,South,184,0.0,0.0,81,0.00,,,-99.99,Weather View 32 v70,2013-08-11 12:20:00,
2013-08-11 07:30:00,62.4,56.5,30.06,South,184,0.0,0.0,81,0.00,,,-99.99,Weather View 32 v70,2013-08-11 12:30:00,
2013-08-11 07:45:00,62.8,57.2,30.06,South,184,0.0,0.0,82,0.00,,,-99.99,Weather View 32 v70,2013-08-11 12:45:00,
2013-08-11 07:50:00,63.0,57.4,30.06,South,183,0.0,0.0,82,0.00,,,-99.99,Weather View 32 v70,2013-08-11 12:50:00,
2013-08-11 07:55:00,63.0,57.4,30.06,South,184,0.0,0.0,82,0.00,,,-99.99,Weather View 32 v70,2013-08-11 12:55:00,
2013-08-11 08:10:00,63.7,58.1,30.06,South,184,0.0,0.0,82,0.00,,,-99.99,Weather View 32 v70,2013-08-11 13:10:00,
2013-08-11 08:15:00,63.9,58.6,30.06,South,184,0.0,0.0,83,0.00,,,-99.99,Weather View 32 v70,2013-08-11 13:15:00,
2013-08-11 08:25:00,64.2,58.9,30.06,SSW,197,0.0,0.0,83,0.00,,,-99.99,Weather View 32 v70,2013-08-11 13:25:00,
2013-08-11 08:40:00,64.9,59.3,30.06,SSW,196,0.0,0.0,82,0.00,,,-99.99,Weather View 32 v70,2013-08-11 13:40:00,
2013-08-11 08:45:00,65.1,59.5,30.06,NW,315,2.0,3.0,82,0.00,,,-99.99,Weather View 32 v70,2013-08-11 13:45:00,
2013-08-11 08:55:00,65.3,59.6,30.06,NNE,31,0.0,3.0,82,0.00,,,-99.99,Weather View 32 v70,2013-08-11 13:55:00,
2013-08-11 09:05:00,65.3,59.3,30.06,NNE,25,3.0,4.0,81,0.00,,,-99.99,Weather View 32 v70,2013-08-11 14:05:00,
2013-08-11 09:10:00,65.5,59.5,30.06,NNE,21,3.0,5.0,81,0.00,,,-99.99,Weather View 32 v70,2013-08-11 14:10:00,
2013-08-11 09:15:00,65.5,59.5,30.06,NE,34,3.0,5.0,81,0.00,,,-99.99,Weather View 32 v70,2013-08-11 14:15:00,
2013-08-11 09:20:00,65.5,59.5,30.06,NNW,345,4.0,5.0,81,0.00,,,-99.99,Weather View 32 v70,2013-08-11 14:20:00,
2013-08-11 09:30:00,64.9,58.6,30.06,NE,43,3.0,6.0,80,0.00,,,-99.99,Weather View 32 v70,2013-08-11 14:30:00,
2013-08-11 09:35:00,64.9,59.0,30.06,NNE,25,4.0,6.0,81,0.00,,,-99.99,Weather View 32 v70,2013-08-11 14:35:00,
2013-08-11 09:45:00,64.9,59.0,30.06,NNW,333,4.0,6.0,81,0.00,,,-99.99,Weather View 32 v70,2013-08-11 14:45:00,
2013-08-11 09:55:00,65.1,59.1,30.06,NNE,27,0.0,6.0,81,0.00,,,-99.99,Weather View 32 v70,2013-08-11 14:55:00,
2013-08-11 10:00:00,65.3,59.3,30.06,North,0,3.0,6.0,81,0.00,,,-99.99,Weather View 32 v70,2013-08-11 15:00:00,
2013-08-11 10:10:00,65.7,59.7,30.06,North,349,3.0,6.0,81,0.00,,,-99.99,Weather View 32 v70,2013-08-11 15:10:00,
2013-08-11 10:15:00,65.8,59.8,30.06,NNW,345,3.0,6.0,81,0.00,,,-99.99,Weather View 32 v70,2013-08-11 15:15:00,
2013-08-11 10:25:00,65.8,59.5,30.06,NNW,345,3.0,6.0,80,0.00,,,-99.99,Weather View 32 v70,2013-08-11 15:25:00,
2013-08-11 10:35:00,66.2,59.5,30.06,ENE,77,3.0,6.0,79,0.00,,,-99.99,Weather View 32 v70,2013-08-11 15:35:00,
2013-08-11 10:40:00,66.6,59.5,30.06,NNE,23,2.0,6.0,78,0.00,,,-99.99,Weather View 32 v70,2013-08-11 15:40:00,
2013-08-11 10:50:00,66.7,58.9,30.06,NNW,341,0.0,6.0,76,0.00,,,-99.99,Weather View 32 v70,2013-08-11 15:50:00,
2013-08-11 10:55:00,67.1,59.3,30.06,NNE,20,2.0,6.0,76,0.00,,,-99.99,Weather View 32 v70,2013-08-11 15:55:00,
2013-08-11 11:10:00,67.6,59.0,30.06,NNW,341,3.0,5.0,74,0.00,,,-99.99,Weather View 32 v70,2013-08-11 16:10:00,
2013-08-11 11:15:00,67.8,58.8,30.09,North,8,3.0,5.0,73,0.00,,,-99.99,Weather View 32 v70,2013-08-11 16:15:00,
2013-08-11 11:35:00,67.5,56.9,30.09,NNW,346,2.0,6.0,69,0.00,,,-99.99,Weather View 32 v70,2013-08-11 16:35:00,
2013-08-11 11:40:00,67.3,57.1,30.09,NNW,335,0.0,6.0,70,0.00,,,-99.99,Weather View 32 v70,2013-08-11 16:40:00,
2013-08-11 11:45:00,67.6,57.9,30.09,NE,40,0.0,6.0,71,0.00,,,-99.99,Weather View 32 v70,2013-08-11 16:45:00,
2013-08-11 11:50:00,67.8,58.0,30.09,NNW,330,3.0,6.0,71,0.00,,,-99.99,Weather View 32 v70,2013-08-11 16:50:00,
2013-08-11 11:55:00,67.8,58.0,30.09,NNE,25,0.0,6.0,71,0.00,,,-99.99,Weather View 32 v70,2013-08-11 16:55:00,
2013-08-11 12:00:00,68.0,57.8,30.09,NNW,338,4.0,6.0,70,0.00,,,-99.99,Weather View 32 v70,2013-08-11 17:00:00,
2013-08-11 12:10:00,68.9,58.7,30.09,NNE,15,0.0,6.0,70,0.00,,,-99.99,Weather View 32 v70,2013-08-11 17:10:00,
2013-08-11 12:20:00,69.8,58.7,30.09,North,5,0.0,6.0,68,0.00,,,-99.99,Weather View 32 v70,2013-08-11 17:20:00,
2013-08-11 12:25:00,69.8,57.9,30.09,North,2,0.0,6.0,66,0.00,,,-99.99,Weather View 32 v70,2013-08-11 17:25:00,
2013-08-11 12:35:00,70.2,57.8,30.06,North,353,0.0,6.0,65,0.00,,,-99.99,Weather View 32 v70,2013-08-11 17:35:00,
2013-08-11 12:45:00,70.7,57.9,30.06,NNE,28,3.0,6.0,64,0.00,,,-99.99,Weather View 32 v70,2013-08-11 17:45:00,
2013-08-11 12:50:00,71.2,58.0,30.06,NE,47,3.0,6.0,63,0.00,,,-99.99,Weather View 32 v70,2013-08-11 17:50:00,
2013-08-11 12:58:00,71.6,56.9,30.06,NNW,336,3.0,6.0,60,0.00,,,-99.99,Weather View 32 v70,2013-08-11 17:58:00,
2013-08-11 13:05:00,72.1,56.5,30.06,NW,320,5.0,6.0,58,0.00,,,-99.99,Weather View 32 v70,2013-08-11 18:05:00,
2013-08-11 13:15:00,72.1,56.0,30.06,WNW,298,4.0,6.0,57,0.00,,,-99.99,Weather View 32 v70,2013-08-11 18:15:00,
2013-08-11 13:20:00,72.5,56.8,30.06,NW,324,3.0,6.0,58,0.00,,,-99.99,Weather View 32 v70,2013-08-11 18:20:00,
2013-08-11 13:30:00,73.2,55.0,30.06,NNE,13,2.0,6.0,53,0.00,,,-99.99,Weather View 32 v70,2013-08-11 18:30:00,
2013-08-11 13:40:00,74.1,53.7,30.06,NNW,330,4.0,6.0,49,0.00,,,-99.99,Weather View 32 v70,2013-08-11 18:40:00,
2013-08-11 13:45:00,73.8,52.8,30.06,NNW,343,3.0,6.0,48,0.00,,,-99.99,Weather View 32 v70,2013-08-11 18:45:00,
2013-08-11 13:55:00,73.6,52.6,30.06,NNW,339,4.0,8.0,48,0.00,,,-99.99,Weather View 32 v70,2013-08-11 18:55:00,
2013-08-11 14:00:00,74.1,52.0,30.06,NW,323,0.0,8.0,46,0.00,,,-99.99,Weather View 32 v70,2013-08-11 19:00:00,
2013-08-11 14:10:00,74.8,52.6,30.06,NW,307,4.0,8.0,46,0.00,,,-99.99,Weather View 32 v70,2013-08-11 19:10:00,
2013-08-11 14:20:00,75.4,51.3,30.06,ESE,119,0.0,8.0,43,0.00,,,-99.99,Weather View 32 v70,2013-08-11 19:20:00,
2013-08-11 14:30:00,75.9,50.5,30.06,North,357,0.0,8.0,41,0.00,,,-99.99,Weather View 32 v70,2013-08-11 19:30:00,
2013-08-11 14:35:00,76.1,50.0,30.06,North,4,5.0,8.0,40,0.00,,,-99.99,Weather View 32 v70,2013-08-11 19:35:00,
2013-08-11 14:45:00,75.4,49.3,30.06,WNW,301,4.0,8.0,40,0.00,,,-99.99,Weather View 32 v70,2013-08-11 19:45:00,
2013-08-11 14:55:00,75.9,47.7,30.06,NW,311,0.0,8.0,37,0.00,,,-99.99,Weather View 32 v70,2013-08-11 19:55:00,
2013-08-11 15:00:00,76.5,48.9,30.06,NE,45,0.0,8.0,38,0.00,,,-99.99,Weather View 32 v70,2013-08-11 20:00:00,
2013-08-11 15:10:00,77.4,49.0,30.06,NNE,30,3.0,8.0,37,0.00,,,-99.99,Weather View 32 v70,2013-08-11 20:10:00,
2013-08-11 15:15:00,77.2,48.8,30.06,ENE,57,3.0,8.0,37,0.00,,,-99.99,Weather View 32 v70,2013-08-11 20:15:00,
2013-08-11 15:20:00,77.4,49.7,30.06,NW,325,5.0,8.0,38,0.00,,,-99.99,Weather View 32 v70,2013-08-11 20:20:00,
2013-08-11 15:30:00,76.5,48.9,30.06,NW,312,0.0,8.0,38,0.00,,,-99.99,Weather View 32 v70,2013-08-11 20:30:00,
2013-08-11 15:40:00,76.6,49.8,30.06,NW,316,3.0,8.0,39,0.00,,,-99.99,Weather View 32 v70,2013-08-11 20:40:00,
2013-08-11 15:50:00,77.2,50.2,30.03,NNE,28,2.0,8.0,39,0.00,,,-99.99,Weather View 32 v70,2013-08-11 20:50:00,
2013-08-11 16:00:00,78.6,50.1,30.03,NNE,14,3.0,8.0,37,0.00,,,-99.99,Weather View 32 v70,2013-08-11 21:00:00,
2013-08-11 16:10:00,79.0,48.9,30.03,NW,322,4.0,8.0,35,0.00,,,-99.99,Weather View 32 v70,2013-08-11 21:10:00,
2013-08-11 16:25:00,78.4,48.4,30.03,NNE,30,3.0,8.0,35,0.00,,,-99.99,Weather View 32 v70,2013-08-11 21:25:00,
2013-08-11 16:40:00,78.3,48.3,30.03,WNW,288,3.0,8.0,35,0.00,,,-99.99,Weather View 32 v70,2013-08-11 21:40:00,
2013-08-11 16:45:00,77.9,48.0,30.03,NW,325,0.0,8.0,35,0.00,,,-99.99,Weather View 32 v70,2013-08-11 21:45:00,
2013-08-11 17:00:00,77.7,47.8,30.03,North,10,2.0,8.0,35,0.00,,,-99.99,Weather View 32 v70,2013-08-11 22:00:00,
2013-08-11 17:10:00,78.1,48.1,30.03,NNW,339,6.0,8.0,35,0.00,,,-99.99,Weather View 32 v70,2013-08-11 22:10:00,
2013-08-11 17:15:00,77.7,47.0,30.03,NW,319,4.0,8.0,34,0.00,,,-99.99,Weather View 32 v70,2013-08-11 22:15:00,
2013-08-11 17:25:00,78.3,47.5,30.03,NNW,329,5.0,8.0,34,0.00,,,-99.99,Weather View 32 v70,2013-08-11 22:25:00,
2013-08-11 17:30:00,78.3,48.3,30.03,NNW,344,2.0,8.0,35,0.00,,,-99.99,Weather View 32 v70,2013-08-11 22:30:00,
2013-08-11 17:45:00,78.6,47.0,30.03,WNW,299,6.0,8.0,33,0.00,,,-99.99,Weather View 32 v70,2013-08-11 22:45:00,
2013-08-11 17:55:00,77.5,46.1,30.03,NW,308,5.0,8.0,33,0.00,,,-99.99,Weather View 32 v70,2013-08-11 22:55:00,
2013-08-11 18:00:00,77.7,47.8,30.03,NNW,331,0.0,8.0,35,0.00,,,-99.99,Weather View 32 v70,2013-08-11 23:00:00,
2013-08-11 18:10:00,77.9,46.4,30.03,NW,326,3.0,8.0,33,0.00,,,-99.99,Weather View 32 v70,2013-08-11 23:10:00,
2013-08-11 18:15:00,77.9,46.4,30.03,NW,311,3.0,8.0,33,0.00,,,-99.99,Weather View 32 v70,2013-08-11 23:15:00,
2013-08-11 18:25:00,78.6,47.8,30.03,NW,313,3.0,8.0,34,0.00,,,-99.99,Weather View 32 v70,2013-08-11 23:25:00,
2013-08-11 18:35:00,78.6,47.0,30.03,NNW,348,3.0,8.0,33,0.00,,,-99.99,Weather View 32 v70,2013-08-11 23:35:00,
2013-08-11 18:45:00,77.0,44.8,30.00,WNW,300,3.0,8.0,32,0.00,,,-99.99,Weather View 32 v70,2013-08-11 23:45:00,
2013-08-11 19:00:00,76.3,45.8,30.00,NW,325,4.0,8.0,34,0.00,,,-99.99,Weather View 32 v70,2013-08-12 00:00:00,
2013-08-11 19:10:00,75.9,45.5,30.00,NNW,329,5.0,7.0,34,0.00,,,-99.99,Weather View 32 v70,2013-08-12 00:10:00,
2013-08-11 19:25:00,75.7,45.3,30.00,NW,305,2.0,7.0,34,0.00,,,-99.99,Weather View 32 v70,2013-08-12 00:25:00,
2013-08-11 19:35:00,75.4,44.2,30.00,NNW,335,4.0,7.0,33,0.00,,,-99.99,Weather View 32 v70,2013-08-12 00:35:00,
2013-08-11 19:45:00,74.8,45.3,30.00,NW,304,2.0,6.0,35,0.00,,,-99.99,Weather View 32 v70,2013-08-12 00:45:00,
2013-08-11 19:55:00,73.8,45.1,30.00,NW,311,3.0,6.0,36,0.00,,,-99.99,Weather View 32 v70,2013-08-12 00:55:00,
2013-08-11 20:02:00,73.4,44.7,30.00,NW,308,3.0,6.0,36,0.00,,,-99.99,Weather View 32 v70,2013-08-12 01:02:00,
2013-08-11 20:10:00,72.9,45.7,30.00,NW,304,3.0,6.0,38,0.00,,,-99.99,Weather View 32 v70,2013-08-12 01:10:00,
2013-08-11 20:15:00,72.5,45.4,30.00,NW,323,3.0,6.0,38,0.00,,,-99.99,Weather View 32 v70,2013-08-12 01:15:00,
2013-08-11 20:25:00,72.1,45.7,30.00,NNW,327,4.0,6.0,39,0.00,,,-99.99,Weather View 32 v70,2013-08-12 01:25:00,
2013-08-11 20:35:00,71.8,46.1,30.00,NNW,329,0.0,6.0,40,0.00,,,-99.99,Weather View 32 v70,2013-08-12 01:35:00,
2013-08-11 20:45:00,71.4,47.1,30.00,NNW,329,0.0,6.0,42,0.00,,,-99.99,Weather View 32 v70,2013-08-12 01:45:00,
2013-08-11 20:50:00,71.1,46.7,30.00,NNW,329,0.0,6.0,42,0.00,,,-99.99,Weather View 32 v70,2013-08-12 01:50:00,
2013-08-11 21:00:00,70.5,46.9,30.03,NNW,329,0.0,6.0,43,0.00,,,-99.99,Weather View 32 v70,2013-08-12 02:00:00,
2013-08-11 21:05:00,70.2,47.2,30.03,NNW,329,0.0,6.0,44,0.00,,,-99.99,Weather View 32 v70,2013-08-12 02:05:00,
2013-08-11 21:10:00,69.8,46.8,30.03,NNW,329,0.0,6.0,44,0.00,,,-99.99,Weather View 32 v70,2013-08-12 02:10:00,
2013-08-11 21:15:00,69.4,47.1,30.03,NNW,329,0.0,5.0,45,0.00,,,-99.99,Weather View 32 v70,2013-08-12 02:15:00,
2013-08-11 21:20:00,69.1,46.8,30.03,NNW,329,0.0,5.0,45,0.00,,,-99.99,Weather View 32 v70,2013-08-12 02:20:00,
2013-08-11 21:25:00,68.7,47.0,30.03,NNW,329,0.0,5.0,46,0.00,,,-99.99,Weather View 32 v70,2013-08-12 02:25:00,
2013-08-11 21:30:00,68.5,46.9,30.03,NNW,329,0.0,4.0,46,0.00,,,-99.99,Weather View 32 v70,2013-08-12 02:30:00,
2013-08-11 21:35:00,68.2,46.6,30.03,NNW,329,0.0,0.0,46,0.00,,,-99.99,Weather View 32 v70,2013-08-12 02:35:00,
2013-08-11 21:45:00,67.6,47.2,30.03,NNW,329,0.0,0.0,48,0.00,,,-99.99,Weather View 32 v70,2013-08-12 02:45:00,
2013-08-11 21:50:00,67.6,47.7,30.03,NNW,329,0.0,0.0,49,0.00,,,-99.99,Weather View 32 v70,2013-08-12 02:50:00,
2013-08-11 22:00:00,67.3,48.0,30.03,NNW,329,0.0,0.0,50,0.00,,,-99.99,Weather View 32 v70,2013-08-12 03:00:00,
2013-08-11 22:05:00,67.1,47.8,30.03,NNW,329,0.0,0.0,50,0.00,,,-99.99,Weather View 32 v70,2013-08-12 03:05:00,
2013-08-11 22:10:00,66.9,47.6,30.03,NNW,329,0.0,0.0,50,0.00,,,-99.99,Weather View 32 v70,2013-08-12 03:10:00,
2013-08-11 22:25:00,66.4,47.7,30.03,NNW,329,0.0,0.0,51,0.00,,,-99.99,Weather View 32 v70,2013-08-12 03:25:00,
2013-08-11 22:30:00,66.4,48.2,30.03,NNW,329,0.0,0.0,52,0.00,,,-99.99,Weather View 32 v70,2013-08-12 03:30:00,
2013-08-11 22:40:00,66.2,48.0,30.03,NNW,329,0.0,0.0,52,0.00,,,-99.99,Weather View 32 v70,2013-08-12 03:40:00,
2013-08-11 22:45:00,65.8,48.2,30.03,NNW,329,0.0,0.0,53,0.00,,,-99.99,Weather View 32 v70,2013-08-12 03:45:00,
2013-08-11 22:50:00,65.7,48.0,30.03,NNW,329,0.0,0.0,53,0.00,,,-99.99,Weather View 32 v70,2013-08-12 03:50:00,
2013-08-11 23:00:00,64.8,47.7,30.03,NNW,329,0.0,0.0,54,0.00,,,-99.99,Weather View 32 v70,2013-08-12 04:00:00,
2013-08-11 23:04:00,64.8,47.7,30.03,NNW,329,0.0,0.0,54,0.00,,,-99.99,Weather View 32 v70,2013-08-12 04:04:00,
2013-08-11 23:10:00,64.0,47.5,30.03,NNW,329,0.0,0.0,55,0.00,,,-99.99,Weather View 32 v70,2013-08-12 04:10:00,
2013-08-11 23:15:00,63.7,47.2,30.03,NNW,329,0.0,0.0,55,0.00,,,-99.99,Weather View 32 v70,2013-08-12 04:15:00,
2013-08-11 23:20:00,63.5,47.5,30.03,NNW,329,0.0,0.0,56,0.00,,,-99.99,Weather View 32 v70,2013-08-12 04:20:00,
2013-08-11 23:25:00,63.0,47.0,30.03,NNW,329,0.0,0.0,56,0.00,,,-99.99,Weather View 32 v70,2013-08-12 04:25:00,
2013-08-11 23:35:00,62.4,47.4,30.03,NNW,329,0.0,0.0,58,0.00,,,-99.99,Weather View 32 v70,2013-08-12 04:35:00,
2013-08-11 23:40:00,62.1,47.1,30.03,NNW,329,0.0,0.0,58,0.00,,,-99.99,Weather View 32 v70,2013-08-12 04:40:00,
2013-08-11 23:45:00,61.9,47.4,30.03,NNW,329,0.0,0.0,59,0.00,,,-99.99,Weather View 32 v70,2013-08-12 04:45:00,
2013-08-11 23:50:00,61.9,47.8,30.03,NNW,329,0.0,0.0,60,0.00,,,-99.99,Weather View 32 v70,2013-08-12 04:50:00,